Weather observations for the past three days for
West Plains, West Plains Municipal Airport
Imperial (Metric)
Date Time (cdt) Wind (mph) Vis. (mi.) Weather Sky Cond. Temperature (ºF) Relative Humidity Wind Chill (°F) Heat Index (°F) Pressure Precipitation (in)
Air Dwpt 6 hour altimeter (in) sea level (mb) 1 hr 3 hr 6 hr
Max. Min.
15 02:53 SW 5 10.00 Fair CLR 77 70 79% 79 30.02 1015.0
15 01:53 S 5 10.00 Fair CLR 77 69.1 77% 79 30.03 1015.3
15 00:53 SW 5 10.00 Fair CLR 78.1 68 87.1 78.1 71% 80 30.04 1015.4
14 23:53 SW 5 10.00 Fair CLR 79 68 69% 81 30.05 1015.8
14 22:53 S 7 10.00 Fair CLR 81 68 65% 84 30.05 1015.9
14 21:53 S 7 10.00 Fair CLR 82 69.1 65% 85 30.04 1015.6
14 20:53 S 5 10.00 Fair CLR 82.9 71.1 67% 88 30.05 1015.9
14 19:53 S 5 10.00 Fair CLR 86 71.1 61% 92 30.05 1016.0
14 18:53 S 5 10.00 Fair CLR 87.1 70 91 87.1 57% 92 30.06 1016.3
14 17:53 S 8 10.00 Fair CLR 89.1 70 53% 94 30.05 1015.9
14 16:53 S 8 10.00 Fair CLR 91 66.9 45% 94 30.06 1016.1
14 15:53 S 6 10.00 Fair CLR 90 69.1 50% 95 30.08 1016.8
14 14:53 S 8 10.00 Fair CLR 90 68 48% 94 30.09 1017.3
14 13:53 Calm 10.00 A Few Clouds FEW037 89.1 70 53% 94 30.11 1018.1
14 12:53 S 8 10.00 Fair CLR 89.1 70 89.1 75 53% 94 30.14 1018.9
14 11:53 SW 8 10.00 Fair CLR 87.1 71.1 59% 93 30.16 1019.5
14 10:53 SW 6 10.00 Fair CLR 84.9 71.1 63% 90 30.17 1020.0
14 09:53 SW 6 10.00 Fair CLR 84 72 67% 90 30.17 1020.2
14 08:53 SW 6 10.00 Fair CLR 81 72 74% 85 30.17 1020.1
14 07:53 SW 6 10.00 Fair CLR 78.1 71.1 79% 80 30.16 1019.7
14 06:53 Vrbl 5 10.00 Fair CLR 75 70 78.1 73 84% 75 30.14 1019.1
14 05:53 SW 3 10.00 Fair CLR 73.9 69.1 85% 30.13 1018.8
14 04:53 SW 5 10.00 Fair CLR 75 69.1 82% 75 30.13 1018.7
14 03:53 SW 6 10.00 Fair CLR 75.9 70 82% 77 30.13 1018.7
14 02:53 SW 3 10.00 Fair CLR 75.9 70 82% 77 30.14 1019.2
14 01:53 SW 5 10.00 Fair CLR 77 70 79% 79 30.15 1019.6
14 00:53 SW 5 10.00 Fair CLR 78.1 70 84 77 76% 80 30.17 1020.1
13 23:53 S 6 10.00 Fair CLR 79 70 74% 82 30.17 1020.2
13 22:53 S 5 10.00 Fair CLR 78.1 71.1 79% 80 30.17 1020.3
13 21:53 S 3 7.00 Fair CLR 78.1 72 82% 80 30.17 1020.1
13 20:53 Calm 10.00 Fair CLR 80.1 72 76% 84 30.16 1019.8
13 19:53 Calm 10.00 A Few Clouds FEW120 82.9 73 72% 89 30.16 1019.6
13 18:53 Calm 10.00 Overcast OVC120 82.9 72 87.1 80.1 70% 88 30.15 1019.5
13 17:53 S 5 10.00 Partly Cloudy SCT120 84 72 67% 90 30.15 1019.5
13 16:53 S 7 10.00 A Few Clouds FEW120 86 71.1 61% 92 30.16 1019.6
13 15:53 S 7 10.00 Fair CLR 84.9 71.1 63% 90 30.16 1020.0
13 14:53 SW 6 10.00 Fair CLR 84 70 63% 88 30.2 1021.1
13 13:53 S 5 10.00 Fair CLR 80.1 68 67% 83 30.23 1022.1
13 12:53 N 7 G 17 10.00 Fair CLR 80.1 69.1 82.9 73 69% 83 30.26 1023.3
13 11:53 Vrbl 5 10.00 A Few Clouds FEW110 82 70 67% 86 30.27 1023.5
13 10:53 SW 3 10.00 Mostly Cloudy SCT042 BKN100 82 70 67% 86 30.25 1023.0
13 09:53 SW 9 10.00 Mostly Cloudy BKN100 82 69.1 65% 85 30.25 1022.8
13 08:53 SW 5 10.00 Overcast OVC100 79 69.1 72% 82 30.25 1023.0
13 07:53 S 5 10.00 A Few Clouds FEW100 78.1 69.1 74% 80 30.22 1021.9
13 06:53 Calm 10.00 Fair CLR 73 68 75 71.1 84% 30.2 1021.0
13 05:53 Calm 10.00 Fair CLR 73.9 66.9 79% 30.19 1020.7
13 04:53 S 3 10.00 Fair CLR 72 66.9 84% 30.18 1020.4
13 03:53 Calm 5.00 Fog/Mist CLR 71.1 68 90% 30.17 1020.0
13 02:53 Calm 9.00 Fair CLR 73 70 90% 30.16 1019.8
13 01:53 Calm 10.00 Fair CLR 73 70 90% 30.17 1020.0
13 00:53 SE 3 10.00 Fair CLR 75 70 86 75 84% 75 30.17 1020.2
12 23:53 Calm 10.00 A Few Clouds FEW100 75 70 84% 75 30.17 1020.1
12 22:53 S 3 10.00 A Few Clouds FEW100 75.9 70 82% 77 30.17 1020.2
12 21:53 Calm 10.00 Mostly Cloudy BKN100 77 71.1 82% 79 30.15 1019.6
12 20:53 SE 5 10.00 A Few Clouds FEW095 80.1 72 76% 84 30.14 1019.0
12 19:53 Calm 10.00 A Few Clouds FEW095 82.9 72 70% 88 30.12 1018.6
12 18:53 S 5 10.00 A Few Clouds FEW095 84.9 69.1 87.1 80.1 59% 89 30.12 1018.3
12 17:53 SW 7 10.00 Fair CLR 86 70 59% 91 30.12 1018.4
12 16:53 SW 5 10.00 Fair CLR 86 70 59% 91 30.12 1018.4
12 15:53 S 8 10.00 A Few Clouds FEW034 86 70 59% 91 30.14 1018.9
12 14:53 S 8 10.00 A Few Clouds FEW039 84.9 69.1 59% 89 30.15 1019.4
12 13:53 S 8 10.00 Fair CLR 84 70 63% 88 30.16 1019.7
12 12:53 Vrbl 3 10.00 Fair CLR 80.1 68 81 73 67% 83 30.18 1020.5 0.01
12 11:53 N 5 10.00 Partly Cloudy FEW031 SCT120 79 66.9 67% 81 30.19 1020.8
12 10:53 E 6 G 18 7.00 Light Rain FEW019 BKN100 75 66 74% 76 30.15 1019.8 0.01
12 09:53 N 8 10.00 Mostly Cloudy FEW043 SCT060 BKN080 79 68 69% 81 30.17 1020.2
12 08:53 W 7 10.00 Overcast BKN048 BKN060 OVC095 75.9 69.1 79% 77 30.17 1020.2
12 07:53 SW 5 10.00 Partly Cloudy SCT100 75 68 79% 76 30.15 1019.4
12 06:53 SW 3 10.00 Mostly Cloudy BKN100 73 66.9 75.9 71.1 81% 30.13 1018.6
12 05:53 SW 3 10.00 Fair CLR 73 66.9 81% 30.11 1018.0
12 03:53 SW 5 10.00 Fair CLR 75 66.9 76% 76 30.08 1016.8
Date Time (cdt) Wind (mph) Vis. (mi.) Weather Sky Cond. Air Dwpt Max. Min. Relative Humidity Wind Chill (°F) Heat Index (°F) altimeter (in) sea level (mb) 1 hr 3 hr 6 hr
6 hour
Temperature (ºF) Pressure Precipitation (in)